Meteor 2-8 Rocket - Orbit

View from above orbital plane
View from above orbital plane
View from above satellite
View from above satellite

Ground track
Ground track

The orbit data is extracted from the following two-line orbital elements,

1 13114U 82025B   13140.54455844 -.00000004  00000-0 -16414-4 0   767
2 13114 082.5389 307.2464 0014508 016.8475 044.4185 13.84608340574405
Epoch (UTC): 20 May 2013 13:04:09
Eccentricity: 0.0014508
inclination: 82.5389°
perigee height: 937 km
apogee height: 958 km
right ascension of ascending node: 307.2464°
argument of perigee: 16.8475°
revolutions per day: 13.84608340
mean anomaly at epoch: 44.4185°
orbit number at epoch: 57440

The dashed part of the orbit path shows where the satellite is in the earth's shadow,  

Developed and maintained by Chris Peat, Heavens-Above GmbH. Please read the updated FAQ before sending e-mail. Imprint. DLR